Location: *
(46.1006°N, 1.8394°E)
Time: 10:34:01
(UTC+00:00)

ISS - Pass Details

Date: 20 September 2019
Orbit: 411 x 421 km, 51.6° (Epoch: 19 October)

Event Time Altitude Azimuth Distance (km) Brightness Sun altitude
Rises 19:16:20 0° 224° (SW) 2,333 0.4 -14.7°
Reaches altitude 10° 19:18:28 10° 217° (SW) 1,474 -0.8 -15.1°
Maximum altitude 19:21:37 43° 145° (SE) 589 -3.4 -15.6°
Enters shadow 19:22:11 39° 114° (ESE) 637 -3.4 -15.7°
